DELTA 1 DEB, 2976

Orbit data source: Space-Track

DELTA 1 DEB, 2976 is space debris in SSO originally from a launch on Thu, 20 Apr 1967 UTC launched from the Air Force Western Test Range (AFWTR). Debris objects in space refer to the collection of defunct objects orbiting the Earth. Examples of debris include non-operational satellites, rocket bodies, and fragments generated from explosions, collisions, or faulty payload assembly.

Loading next visibility...
DELTA 1 DEB details
Identifier
2976, 1967-036C
Orbit
SSO
Last TLE update2 days ago
Origin
Flag of USESSA (US)
ManufacturerUnknown
MissionSpacecraft
Bus & MotorUnknown
MassUnknown
Launch date (UTC)
1967-04-20 (58 years ago)
Launch vehicleUnknown
Launch site
Air Force Western Test Range (AFWTR)
Object type
Payload
Rocket body
Debris
Shape & HBRUnknown
Radar Cross SectionSmall (<0.1 m²)

Expand to show TLE details & history

TLE from 2 days ago
0 DELTA 1 DEB
1 02976U 67036C   24355.25823823  .00000001  00000-0  21747-3 0  9993
2 02976 102.1081  99.1649 0098684 125.7720 263.2480 12.82076850698003
Epoch: 2024-12-20T06:11Z
Definitive object data (Epoch: 2024-12-20T06:11:51.783Z)
Latitude27.26515°
Longitude-89.44317°
Altitude1,345.879 km
Speed7.183 km/s
True Right ascension06h 11m 23s
True Declination27° 08' 10"
Sunlit
Object was in full shadow at TLE epoch
Visualization TLE readout
Latitude-61.93903°
Longitude75.41253°
Altitude1,397.118 km
Speed7.142 km/s
Apparent Right ascension17h 11m 51s
Apparent Declination-51° 52' 00"
Sunlit
Object is in daylight
Visualization observer readout
Local Sidereal Time05:12:37
Azimuth179.423° S
Elevation-78.049°
Doppler factor1
Orbital elements
Apogee altitude1,406.731 km
Perigee altitude1,254.584 km
Semi-major axis7,708.794 km
Eccentricity0.0098684
Inclination102.1081°
RAAN99.1649°
Arg. of periapsis125.772°
True anomaly262.12671°
Mean anomaly263.248°
Eccentric anomaly262.68718°
Mean motion3.20674 °/min
BSTAR0.00021747
Orbital period112.26 mins
Loading maneuver chart data...
Loading historical data...
Loading historical data...
Loading historical data...
Loading historical data...
Loading historical data...
Loading historical data...
Loading historical data...
Other satellites on launch #36 in the year 1967 (1967-04-20 UTC)

DELTA 1 DEB Visibility forecast

Observer location: undefined°, undefined

Span
Click to sort rows by Start time (UTC) header in descending order
Start Az.
Max El. time (UTC)
Max El. Az.
Max El.
End time (UTC)
End Az.
15 mins2024-12-22 06:49:55.198Z158.894° S2024-12-22 06:57:55.198Z354.577° N44.727°2024-12-22 07:04:55.198Z342.738° N
7 mins2024-12-22 08:45:55.198Z244.053° WSW2024-12-22 08:48:55.198Z270.517° WNW16.093°2024-12-22 08:52:55.198Z303.263° NW
8 mins2024-12-22 18:39:55.198Z64.631° ENE2024-12-22 18:42:55.198Z93.26° ESE18.197°2024-12-22 18:47:55.198Z136.567° SSE
13 mins2024-12-22 20:27:55.198Z13.84° NNE2024-12-22 20:33:55.198Z291.81° WNW44.245°2024-12-22 20:40:55.198Z206.987° SW
6 mins2024-12-22 22:20:55.198Z329.345° NNW2024-12-22 22:22:55.198Z311.249° NW15.228°2024-12-22 22:26:55.198Z277.429° WNW
10 mins2024-12-23 05:23:55.198Z98.105° ESE2024-12-23 05:27:55.198Z60.248° ENE23.185°2024-12-23 05:33:55.198Z5.775° NNE
|